Location: Bretagne
(43.8474°N, 0.4650°W)
Time: 19:09:04
(UTC+00:00)

Cosmos 1992 Rocket - Pass Details

Date: 15 January 2026
Orbit: 754 x 761 km, 74.0° (Epoch: 13 February)

Event Time Altitude Azimuth Distance (km) Brightness Sun altitude
Rises 19:09:20 0° 197° (SSW) 3,192 7.5 -24.6°
Reaches altitude 10° 19:11:40 10° 197° (SSW) 2,272 6.7 -25.1°
Maximum altitude 19:16:50 87° 111° (ESE) 761 3.8 -26.0°
Enters shadow 19:16:59 84° 54° (NE) 764 3.8 -26.0°
